Hourly Data Report for July 08, 2021

LYNN LAKE
MANITOBA
Current Station Operator: NAVCAN

56°51'50.000" N
101°04'34.000" W
356.60 m
5061645
71078
YYL

Download Data

Hourly Data (July 2021)
Hourly Data Report for July 8, 2021
TIME
LST
Temp Definition
°C
Dew Point Definition
°C
Rel Hum Definition
%
Precip. Amount Definition
mm

Wind Dir Definition
10's deg

Wind Spd Definition
km/h
Visibility Definition
km
Stn Press Definition
kPa
Hmdx Definition


Wind Chill Definition


Weather Definition


00:00 16.8 13.4 80 0.0 21 9 16.1 96.73     LegendNANA
01:00 15.7 12.7 82 0.0 22 9 16.1 96.71     LegendNANA
02:00 15.2 12.7 85 0.0 23 9 16.1 96.71     LegendNANA
03:00 14.9 12.6 86 0.0 22 8 16.1 96.72     LegendNANA
04:00 14.0 12.6 91 0.0 LegendMM 4 16.1 96.71     LegendNANA
05:00 13.6 12.3 92 0.0 LegendMM 4 16.1 96.74     LegendNANA
06:00 14.7 13.5 92 0.0 12 5 16.1 96.77     LegendNANA
07:00 15.2 13.4 89 0.0 18 5 16.1 96.75     LegendNANA
08:00 18.6 14.4 76 0.0 19 9 16.1 96.73     LegendNANA
09:00 22.3 15.4 65 0.0 21 8 16.1 96.71 27   LegendNANA
10:00 24.8 14.0 50 0.0 27 15 16.1 96.70 28   LegendNANA
11:00 26.0 13.6 46 0.0 23 18 16.1 96.68 29   LegendNANA
12:00 25.8 12.6 43 0.0 26 18 16.1 96.68 28   LegendNANA
13:00 26.2 12.5 42 0.0 30 22 16.1 96.68 29   LegendNANA
14:00 27.3 11.7 37 0.0 25 18 16.1 96.69 29   LegendNANA
15:00 28.2 10.7 33 0.0 29 21 16.1 96.69 30   LegendNANA
16:00 28.3 9.7 31 0.0 25 18 16.1 96.67 29   LegendNANA
17:00 28.4 10.1 31 0.0 31 17 16.1 96.65 30   LegendNANA
18:00 28.0 9.8 32 0.0 29 15 16.1 96.66 29   LegendNANA
19:00 27.8 11.0 35 0.0 27 11 16.1 96.64 30   LegendNANA
20:00 26.8 11.5 38 0.0 27 5 16.1 96.67 29   LegendNANA
21:00 23.6 13.4 52 0.0 22 8 16.1 96.69 27   LegendNANA
22:00 21.5 11.9 54 0.0 21 9 16.1 96.72     LegendNANA
23:00 19.7 11.5 59 0.0 22 8 16.1 96.71     LegendNANA

Notes on Data Quality.

Legend

  • E = Estimated
  • M = Missing
  • NA = Not Available*
  • [empty] = Indicates an unobserved value
Date modified: